Two Harbors, MN

5:40 AM CST on February 27, 2017 (GMT -0600)
Silver Bay Municipal

Weather History for KBFW - November, 2011

Change the Weather History Date:

Thursday, November 10, 2011

  Actual Average Record
Temperature  
Mean Temperature 34 °F -  
Max Temperature 37 °F 36 °F 64 °F (2016)
Min Temperature 30 °F 22 °F 17 °F (1996)
Degree Days  
Heating Degree Days 32    
Moisture  
Dew Point 25 °F    
Average Humidity 72    
Maximum Humidity 81    
Minimum Humidity 60    
Precipitation  
Precipitation 0.00 in - - ()
Sea Level Pressure  
Sea Level Pressure 29.84 in    
Wind  
Wind Speed 6 mph (NW)    
Max Wind Speed 12 mph    
Max Gust Speed 20 mph    
Visibility 10 miles    
Events Snow    
Averages and records for this station are not official NWS values.
T = Trace of Precipitation, MM = Missing Value Source: NWS Daily Summary

Daily Weather History Graph

Daily Weather History Graph

Search for Another Location

Airport or City:

Trip Planner

Search our weather history database for the weather conditions in past years. The results will help you decide how hot, cold, wet, or windy it might be!

Date:

Astronomy

Nov. 10, 2011 Rise Set
Actual Time 7:02 AM CST 4:36 PM CST
Civil Twilight 6:29 AM CST 5:09 PM CST
Nautical Twilight 5:52 AM CST 5:46 PM CST
Astronomical Twilight 5:16 AM CST 6:21 PM CST
Moon 4:20 PM CST (11/10) 6:58 AM CST (11/10)
Length of Visible Light 10h 40m
Length of Day
9h 34m
Full, 100% of the Moon is Illuminated
Nov 10
Full
Nov 10
Full
Nov 18
Last Quarter
Nov 25
New
Dec 2
First Quarter

Hourly Weather History & Observations

Time (CST) Temp. Windchill Dew Point Humidity Pressure Visibility Wind Dir Wind Speed Gust Speed Precip Events Conditions
12:14 AM 33.8 °F 28.6 °F 26.6 °F 75% 29.77 in 10.0 mi WNW 5.8 mph - N/A   Scattered Clouds
12:34 AM 33.8 °F 27.7 °F 26.6 °F 75% 29.76 in 10.0 mi WNW 6.9 mph - N/A   Scattered Clouds
12:54 AM 33.8 °F 29.6 °F 26.6 °F 75% 29.76 in 10.0 mi WNW 4.6 mph - N/A Snow Light Snow
1:14 AM 33.8 °F 28.6 °F 26.6 °F 75% 29.76 in 10.0 mi NW 5.8 mph - N/A Snow Light Snow
1:34 AM 33.8 °F 27.0 °F 26.6 °F 75% 29.76 in 10.0 mi NW 8.1 mph - N/A   Overcast
1:54 AM 32.0 °F 24.2 °F 26.6 °F 80% 29.76 in 10.0 mi NW 9.2 mph - N/A   Overcast
2:14 AM 32.0 °F - 26.6 °F 80% 29.75 in 10.0 mi Calm Calm - N/A   Overcast
2:34 AM 33.8 °F 26.4 °F 26.6 °F 75% 29.74 in 10.0 mi NNW 9.2 mph 19.6 mph N/A   Overcast
2:54 AM 33.8 °F 25.8 °F 26.6 °F 75% 29.75 in 10.0 mi NNW 10.4 mph 19.6 mph N/A   Overcast
3:14 AM 33.8 °F 26.4 °F 26.6 °F 75% 29.75 in 10.0 mi NW 9.2 mph 17.3 mph N/A   Overcast
3:34 AM 33.8 °F 27.0 °F 26.6 °F 75% 29.76 in 10.0 mi NW 8.1 mph 19.6 mph N/A   Overcast
3:54 AM 33.8 °F 26.4 °F 26.6 °F 75% 29.76 in 10.0 mi NW 9.2 mph - N/A   Overcast
4:14 AM 33.8 °F 25.8 °F 28.4 °F 81% 29.76 in 10.0 mi NW 10.4 mph 17.3 mph N/A   Overcast
4:54 AM 33.8 °F 26.4 °F 28.4 °F 81% 29.77 in 10.0 mi NW 9.2 mph - N/A   Mostly Cloudy
5:14 AM 33.8 °F 27.7 °F 28.4 °F 81% 29.77 in 10.0 mi NW 6.9 mph - N/A   Scattered Clouds
5:34 AM 33.8 °F 27.7 °F 28.4 °F 81% 29.78 in 10.0 mi NW 6.9 mph - N/A   Scattered Clouds
6:14 AM 33.8 °F 29.6 °F 28.4 °F 81% 29.79 in 10.0 mi West 4.6 mph - N/A   Clear
6:34 AM 33.8 °F 27.0 °F 26.6 °F 75% 29.79 in 10.0 mi NW 8.1 mph - N/A   Clear
6:54 AM 33.8 °F 30.8 °F 26.6 °F 75% 29.80 in 10.0 mi NW 3.5 mph - N/A   Clear
7:14 AM 33.8 °F 28.6 °F 26.6 °F 75% 29.82 in 10.0 mi NNW 5.8 mph - N/A   Clear
7:34 AM 33.8 °F 28.6 °F 28.4 °F 81% 29.82 in 10.0 mi NW 5.8 mph - N/A   Clear
7:54 AM 33.8 °F 27.7 °F 28.4 °F 81% 29.83 in 10.0 mi WNW 6.9 mph - N/A   Scattered Clouds
8:34 AM 33.8 °F 25.8 °F 28.4 °F 81% 29.84 in 7.0 mi NNW 10.4 mph 16.1 mph N/A Snow Light Snow
8:54 AM 35.6 °F 27.5 °F 28.4 °F 75% 29.84 in 10.0 mi NNW 11.5 mph 16.1 mph N/A Snow Light Snow
9:15 AM 35.6 °F 30.7 °F 28.4 °F 75% 29.85 in 5.0 mi NW 5.8 mph - N/A Snow Light Snow
9:34 AM 35.6 °F 30.7 °F 28.4 °F 75% 29.86 in 5.0 mi NW 5.8 mph - N/A Snow Light Snow
10:14 AM 35.6 °F 29.9 °F 28.4 °F 75% 29.86 in 10.0 mi WNW 6.9 mph - N/A   Clear
10:34 AM 35.6 °F 32.8 °F 28.4 °F 75% 29.87 in 3.0 mi WNW 3.5 mph - N/A Snow Light Snow
10:54 AM 35.6 °F 31.7 °F 28.4 °F 75% 29.87 in 3.0 mi WNW 4.6 mph - N/A Snow Light Snow
11:14 AM 35.6 °F 32.8 °F 28.4 °F 75% 29.87 in 7.0 mi WNW 3.5 mph - N/A Snow Light Snow
11:54 AM 37.4 °F 32.8 °F 28.4 °F 70% 29.86 in 10.0 mi WNW 5.8 mph - N/A   Clear
12:14 PM 35.6 °F 28.6 °F 26.6 °F 70% 29.87 in 10.0 mi NW 9.2 mph - N/A   Scattered Clouds
12:34 PM 35.6 °F 29.2 °F 26.6 °F 70% 29.87 in 10.0 mi NW 8.1 mph - N/A   Scattered Clouds
12:54 PM 35.6 °F 29.2 °F 26.6 °F 70% 29.87 in 10.0 mi NW 8.1 mph - N/A   Scattered Clouds
1:14 PM 35.6 °F 32.8 °F 26.6 °F 70% 29.87 in 10.0 mi NW 3.5 mph - N/A   Clear
1:54 PM 35.6 °F 29.9 °F 26.6 °F 70% 29.88 in 10.0 mi NW 6.9 mph - N/A   Clear
2:14 PM 35.6 °F 30.7 °F 26.6 °F 70% 29.88 in 10.0 mi WNW 5.8 mph - N/A   Clear
2:34 PM 33.8 °F 27.0 °F 24.8 °F 70% 29.88 in 10.0 mi WNW 8.1 mph - N/A   Scattered Clouds
3:14 PM 33.8 °F 27.0 °F 23.0 °F 65% 29.89 in 10.0 mi WNW 8.1 mph 17.3 mph N/A   Scattered Clouds
3:34 PM 33.8 °F 28.6 °F 23.0 °F 65% 29.90 in 10.0 mi NW 5.8 mph - N/A   Clear
3:54 PM 33.8 °F 25.8 °F 21.2 °F 60% 29.90 in 10.0 mi WNW 10.4 mph 19.6 mph N/A   Scattered Clouds
4:14 PM 33.8 °F 28.6 °F 21.2 °F 60% 29.91 in 10.0 mi WNW 5.8 mph - N/A   Scattered Clouds
4:54 PM 32.0 °F 28.7 °F 23.0 °F 69% 29.90 in 10.0 mi WNW 3.5 mph - N/A   Scattered Clouds
5:14 PM 32.0 °F 24.2 °F 23.0 °F 69% 29.90 in 10.0 mi WNW 9.2 mph - N/A   Scattered Clouds
5:34 PM 32.0 °F 28.7 °F 23.0 °F 69% 29.90 in 10.0 mi WNW 3.5 mph - N/A   Scattered Clouds
5:54 PM 32.0 °F 26.4 °F 21.2 °F 64% 29.90 in 10.0 mi NW 5.8 mph 17.3 mph N/A   Scattered Clouds
6:14 PM 32.0 °F - 21.2 °F 64% 29.90 in 10.0 mi Calm Calm - N/A   Clear
6:34 PM 32.0 °F 25.6 °F 21.2 °F 64% 29.90 in 10.0 mi NW 6.9 mph - N/A   Clear
6:54 PM 32.0 °F 27.5 °F 21.2 °F 64% 29.90 in 10.0 mi NW 4.6 mph - N/A   Clear
7:14 PM 32.0 °F 25.6 °F 21.2 °F 64% 29.90 in 10.0 mi WNW 6.9 mph - N/A   Clear
7:34 PM 30.2 °F 21.3 °F 19.4 °F 64% 29.90 in 10.0 mi NW 10.4 mph 16.1 mph N/A   Clear
7:54 PM 30.2 °F 24.3 °F 19.4 °F 64% 29.90 in 10.0 mi WNW 5.8 mph - N/A   Clear
8:14 PM 30.2 °F - 19.4 °F 64% 29.90 in 10.0 mi Calm Calm - N/A   Clear
8:34 PM 30.2 °F - 19.4 °F 64% 29.90 in 10.0 mi Calm Calm - N/A   Clear
8:54 PM 30.2 °F - 19.4 °F 64% 29.90 in 10.0 mi Calm Calm - N/A   Clear
9:14 PM 30.2 °F - 19.4 °F 64% 29.90 in 10.0 mi Calm Calm - N/A   Clear
9:34 PM 28.4 °F - 19.4 °F 69% 29.89 in 10.0 mi Calm Calm - N/A   Clear
9:55 PM 26.6 °F - 17.6 °F 69% 29.89 in 10.0 mi Calm Calm - N/A   Clear
10:14 PM 26.6 °F - 17.6 °F 69% 29.89 in 10.0 mi Calm Calm - N/A   Clear
10:34 PM 24.8 °F - 17.6 °F 74% 29.89 in 10.0 mi Calm Calm - N/A   Clear
10:54 PM 24.8 °F - 17.6 °F 74% 29.88 in 10.0 mi Calm Calm - N/A   Clear
11:14 PM 23.0 °F - 17.6 °F 80% 29.87 in 10.0 mi Calm Calm - N/A   Unknown
11:34 PM 21.2 °F - 17.6 °F 86% 29.87 in 10.0 mi Calm Calm - N/A   Unknown
11:54 PM 21.2 °F - 17.6 °F 86% 29.87 in 10.0 mi Calm Calm - N/A   Unknown